VE3KSR Weather Reports


Display with metric or nautical units.
time (UTC)temp
F
wind
direction
speed
MPH
gust
MPH
rain 1hr
in
rain 24hr
in
rain mn
in
humidity
%
barometer
mb
20150701150856 57 352 12.0 18.0 0.69 0.00 0.00 92 1011.0
20150701150359 56 318 12.0 17.0 0.69 0.00 0.00 92 1011.1
20150701145857 56 335 12.0 17.0 0.69 0.00 0.00 93 1011.1
20150701145356 56 315 13.0 18.0 0.69 0.00 0.00 93 1011.1
20150701144856 55 332 16.0 20.0 0.69 0.00 0.00 94 1011.0
20150701144356 56 318 11.0 16.0 0.69 0.00 0.00 95 1011.0
20150701143857 55 311 13.0 18.0 0.69 0.00 0.00 95 1011.1
20150701143356 55 339 11.0 16.0 0.69 0.00 0.00 96 1011.1
20150701142856 55 328 14.0 20.0 0.69 0.00 0.00 95 1011.0
20150701142356 55 329 17.0 21.0 0.69 0.00 0.00 97 1011.0
20150701141858 54 318 17.0 22.0 0.69 0.00 0.00 96 1010.9
20150701141357 54 350 14.0 20.0 0.69 0.00 0.00 97 1010.9
20150701140856 54 312 13.0 18.0 0.69 0.00 0.00 97 1010.9
20150701140356 53 326 14.0 19.0 0.69 0.00 0.00 97 1010.9
20150701135856 53 323 13.0 18.0 0.69 0.00 0.00 97 1010.9
20150701135356 53 353 11.0 17.0 0.69 0.00 0.00 98 1010.9
20150701134856 53 319 11.0 16.0 0.69 0.00 0.00 98 1010.9
20150701134356 53 356 15.0 18.0 0.69 0.00 0.00 98 1011.0
20150701133856 53 330 11.0 15.0 0.69 0.00 0.00 98 1011.0
20150701133356 53 323 10.0 14.0 0.69 0.00 0.00 98 1011.1
20150701132856 53 318 10.0 16.0 0.69 0.00 0.00 98 1011.0
20150701132356 53 311 9.0 12.0 0.69 0.00 0.00 98 1011.0
20150701131857 53 346 10.0 14.0 0.69 0.00 0.00 98 1010.9
20150701131356 52 321 9.0 12.0 0.69 0.00 0.00 98 1010.9
20150701130856 52 312 9.0 12.0 0.69 0.00 0.00 98 1010.9
20150701130356 52 314 9.0 14.0 0.69 0.00 0.00 98 1011.0
20150701125856 52 338 9.0 13.0 0.69 0.00 0.00 98 1010.8
20150701125356 52 319 8.0 12.0 0.69 0.00 0.00 98 1010.9
20150701124856 52 339 10.0 14.0 0.69 0.00 0.00 98 1010.8
20150701124357 52 339 10.0 15.0 0.69 0.00 0.00 98 1010.9
20150701123856 52 336 10.0 14.0 0.69 0.00 0.00 98 1010.9
20150701123356 52 304 9.0 17.0 0.69 0.00 0.00 98 1010.8
20150701122856 52 335 9.0 13.0 0.69 0.00 0.00 98 1010.7
20150701122356 52 301 9.0 13.0 0.69 0.00 0.00 98 1010.8
20150701121857 52 335 10.0 13.0 0.69 0.00 0.00 98 1010.8
20150701121356 52 332 10.0 13.0 0.69 0.00 0.00 98 1010.7
20150701120856 51 342 9.0 16.0 0.69 0.00 0.00 98 1010.7
20150701120357 49 322 8.0 16.0 0.69 0.00 0.00 98 1010.7
20150701115856 50 321 8.0 16.0 0.69 0.00 0.00 98 1010.6
20150701115356 50 325 11.0 15.0 0.69 0.00 0.00 98 1010.6
20150701114857 51 335 11.0 14.0 0.69 0.00 0.00 98 1010.6
20150701114356 51 340 9.0 13.0 0.69 0.00 0.00 97 1010.6
20150701113856 50 328 8.0 15.0 0.69 0.00 0.00 97 1010.4
20150701113359 50 30 7.0 11.0 0.69 0.00 0.00 98 1010.3
20150701112858 50 343 8.0 12.0 0.69 0.00 0.00 98 1010.4
20150701112356 50 339 9.0 12.0 0.69 0.00 0.00 98 1010.4
20150701111856 50 343 7.0 11.0 0.69 0.00 0.00 98 1010.3
20150701111356 51 15 8.0 12.0 0.69 0.00 0.00 97 1010.2
20150701110856 51 21 11.0 14.0 0.69 0.00 0.00 98 1010.3
20150701110358 51 350 8.0 14.0 0.69 0.00 0.00 97 1010.2
20150701105856 51 335 10.0 13.0 0.69 0.00 0.00 97 1010.2
20150701105356 51 347 10.0 15.0 0.69 0.00 0.00 97 1010.1
20150701104856 50 335 11.0 14.0 0.69 0.00 0.00 97 1010.1
20150701104356 51 304 12.0 16.0 0.69 0.00 0.00 97 1010.0
20150701103856 51 316 11.0 16.0 0.69 0.00 0.00 97 1010.0
20150701103356 51 308 11.0 15.0 0.69 0.00 0.00 97 1009.7
20150701102856 51 333 12.0 18.0 0.69 0.00 0.00 96 1009.6
20150701102357 51 335 11.0 17.0 0.69 0.00 0.00 96 1009.5
20150701101856 51 321 11.0 17.0 0.69 0.00 0.00 96 1009.4
20150701101357 51 329 11.0 17.0 0.69 0.00 0.00 97 1009.4
20150701100856 51 316 11.0 18.0 0.69 0.00 0.00 97 1009.4
20150701100356 51 314 10.0 14.0 0.69 0.00 0.00 96 1009.4
20150701095856 51 340 8.0 12.0 0.69 0.00 0.00 96 1009.4
20150701095356 51 332 8.0 12.0 0.69 0.00 0.00 97 1009.2
20150701094856 50 307 8.0 10.0 0.69 0.00 0.00 97 1009.2
20150701094356 50 304 9.0 13.0 0.69 0.00 0.00 97 1009.0
20150701093856 51 326 9.0 13.0 0.69 0.00 0.00 97 1009.0
20150701093357 50 325 12.0 15.0 0.69 0.00 0.00 97 1009.0
20150701092859 50 309 11.0 16.0 0.69 0.00 0.00 97 1008.9
20150701092356 50 342 12.0 15.0 0.69 0.00 0.00 96 1008.7
20150701091859 50 314 10.0 13.0 0.69 0.00 0.00 96 1008.8
20150701091357 51 316 10.0 14.0 0.69 0.00 0.00 96 1008.8
20150701090856 51 336 11.0 16.0 0.69 0.00 0.00 96 1008.8
20150701090356 50 328 12.0 16.0 0.69 0.00 0.00 96 1008.8
20150701085856 50 294 11.0 15.0 0.69 0.00 0.00 96 1008.7
20150701085357 51 305 10.0 14.0 0.69 0.00 0.00 96 1008.7
20150701084856 51 302 11.0 16.0 0.69 0.00 0.00 96 1008.5
20150701084356 51 309 12.0 17.0 0.69 0.00 0.00 96 1008.5
20150701083856 51 319 7.0 11.0 0.69 0.00 0.00 96 1008.6
20150701083358 50 319 10.0 14.0 0.69 0.00 0.00 89 1008.5
20150701082857 50 335 12.0 17.0 0.69 0.00 0.00 95 1008.4
20150701082356 51 314 8.0 12.0 0.69 0.00 0.00 95 1008.5
20150701081856 51 321 10.0 15.0 0.69 0.00 0.00 95 1008.4
20150701081358 51 308 9.0 14.0 0.69 0.00 0.00 96 1008.5
20150701080856 51 332 7.0 11.0 0.69 0.00 0.00 95 1008.6
20150701080357 52 294 9.0 13.0 0.69 0.00 0.00 95 1008.6
20150701075857 52 332 8.0 11.0 0.69 0.00 0.00 96 1008.7
20150701075357 52 321 8.0 11.0 0.69 0.00 0.00 95 1008.6
20150701074856 52 340 6.0 8.0 0.69 0.00 0.00 96 1008.6
20150701074359 52 329 5.0 9.0 0.69 0.00 0.00 96 1008.7
20150701073857 51 307 6.0 7.0 0.69 0.00 0.00 96 1008.7
20150701073357 51 302 7.0 9.0 0.69 0.00 0.00 96 1008.7
20150701072857 51 308 6.0 8.0 0.69 0.00 0.00 96 1008.7
20150701072400 51 304 7.0 8.0 0.69 0.00 0.00 96 1008.5
20150701071858 51 323 6.0 8.0 0.69 0.00 0.00 96 1008.6
20150701071357 51 308 8.0 11.0 0.69 0.00 0.00 96 1008.8
20150701070857 51 309 1.0 7.0 0.69 0.00 0.00 96 1008.8
20150701070358 50 321 5.0 6.0 0.69 0.00 0.00 96 1008.7
20150701065857 50 0 0.0 0.0 0.69 0.00 0.00 96 1008.8
20150701065358 52 311 6.0 8.0 0.69 0.00 0.00 96 1008.9
20150701064857 52 311 5.0 7.0 0.69 0.00 0.00 96 1009.0
20150701064357 52 311 7.0 9.0 0.69 0.00 0.00 96 1009.1
20150701063857 52 300 7.0 9.0 0.69 0.00 0.00 96 1009.1
20150701063357 52 309 6.0 8.0 0.69 0.00 0.00 96 1009.1
20150701062858 53 0 0.0 0.0 0.69 0.00 0.00 96 1009.4
20150701062357 53 300 5.0 6.0 0.69 0.00 0.00 96 1009.4
20150701061858 53 0 0.0 0.0 0.69 0.00 0.00 96 1009.2
20150701061357 53 309 4.0 5.0 0.69 0.00 0.00 96 1009.1
20150701060857 53 301 4.0 6.0 0.69 0.00 0.00 97 1009.5
20150701060357 53 262 5.0 6.0 0.69 0.00 0.00 96 1009.5
20150701055857 53 266 5.0 6.0 0.69 0.00 0.00 97 1009.5
20150701055357 53 277 5.0 7.0 0.69 0.00 0.00 96 1009.5
20150701054858 53 0 0.0 0.0 0.69 0.00 0.00 96 1009.4
20150701054357 53 0 0.0 0.0 0.69 0.00 0.00 96 1009.4
20150701054041 53 0 0.0 0.0 0.69 0.00 0.00 96 1009.6
20150701053857 53 0 0.0 0.0 0.69 0.00 0.00 96 1009.6
20150701053357 53 0 0.0 0.0 0.69 0.00 0.00 96 1009.4
20150701052857 53 0 0.0 0.0 0.69 0.00 0.00 97 1009.5
20150701052357 53 0 0.0 0.0 0.69 0.00 0.00 97 1009.6
20150701051857 51 0 0.0 0.0 0.69 0.00 0.00 97 1009.7
20150701051357 52 0 0.0 0.0 0.69 0.00 0.00 97 1009.8
20150701050858 52 0 0.0 0.0 0.69 0.00 0.00 97 1009.8
20150701050358 52 0 0.0 0.0 0.69 0.00 0.00 97 1009.7
20150701045857 51 0 0.0 0.0 0.69 0.00 0.00 97 1009.5
20150701045358 51 0 0.0 0.0 0.69 0.00 0.00 97 1009.7
20150701044857 53 250 1.0 5.0 0.69 0.00 0.00 98 1009.6
20150701044358 54 243 6.0 7.0 0.69 0.00 0.00 98 1009.5
20150701043857 54 257 6.0 7.0 0.69 0.00 0.00 98 1009.4
20150701043359 54 246 6.0 7.0 0.69 0.00 0.00 98 1009.5
20150701042857 54 262 4.0 7.0 0.69 0.00 0.00 98 1009.2
20150701042400 54 252 7.0 8.0 0.69 0.00 0.00 98 1009.6
20150701041857 54 246 6.0 7.0 0.69 0.00 0.00 98 1009.7
20150701041357 54 222 5.0 6.0 0.69 0.00 0.00 98 1009.6
20150701040857 54 0 0.0 0.0 0.69 0.00 0.00 98 1009.6
20150701040357 54 0 0.0 0.0 0.69 0.00 0.00 98 1009.5
20150701035857 54 0 0.0 0.0 0.69 0.00 0.00 97 1009.7
20150701035357 54 0 0.0 0.0 0.69 0.00 0.00 97 1009.7
20150701034857 54 215 6.0 6.0 0.69 0.00 0.00 98 1009.7
20150701034357 55 221 6.0 7.0 0.69 0.00 0.00 98 1009.5
20150701033859 55 242 6.0 7.0 0.69 0.00 0.00 98 1009.6
20150701033357 55 249 6.0 7.0 0.69 0.00 0.00 98 1009.6
20150701032857 55 253 7.0 8.0 0.69 0.00 0.00 98 1009.7
20150701032357 55 260 7.0 8.0 0.69 0.00 0.00 98 1009.7
20150701031857 55 250 8.0 9.0 0.69 0.00 0.00 98 1009.6
20150701031358 55 260 8.0 8.0 0.69 0.00 0.00 98 1009.6
20150701030858 55 262 1.0 8.0 0.69 0.00 0.00 98 1009.5
20150701030357 55 0 0.0 0.0 0.69 0.00 0.00 98 1009.4
20150701025857 55 0 0.0 0.0 0.69 0.00 0.00 98 1009.5
20150701025357 55 245 5.0 5.0 0.69 0.00 0.00 98 1009.7
20150701024857 56 248 6.0 6.0 0.69 0.00 0.00 98 1009.7
20150701024357 55 249 6.0 7.0 0.69 0.00 0.00 98 1009.6
20150701023857 55 253 7.0 7.0 0.69 0.00 0.00 98 1009.7
20150701023357 56 259 7.0 8.0 0.69 0.00 0.00 98 1009.7
20150701022857 56 262 7.0 8.0 0.69 0.00 0.00 98 1009.7
20150701022358 56 0 0.0 0.0 0.69 0.00 0.00 97 1009.5
20150701021857 56 0 0.0 0.0 0.69 0.00 0.00 97 1009.4
20150701021357 56 0 0.0 0.0 0.69 0.00 0.00 97 1009.5
20150701020857 56 0 0.0 0.0 0.69 0.00 0.00 97 1009.7
20150701020357 56 0 0.0 0.0 0.69 0.00 0.00 97 1009.7
20150701015857 56 0 0.0 0.0 0.69 0.00 0.00 97 1009.7
20150701015357 56 0 0.0 0.0 0.69 0.00 0.00 97 1009.5
20150701014857 56 212 4.0 7.0 0.69 0.00 0.00 98 1009.5
20150701014357 56 215 3.0 6.0 0.69 0.00 0.00 98 1009.6
20150701013857 56 0 0.0 0.0 0.69 0.00 0.00 97 1009.5
20150701013358 56 0 0.0 0.0 0.69 0.00 0.00 97 1009.1
20150701012857 56 0 0.0 0.0 0.69 0.00 0.00 97 1009.1
20150701012357 56 0 0.0 0.0 0.69 0.00 0.00 97 1009.4
20150701011858 56 0 0.0 0.0 0.69 0.00 0.00 97 1009.5
20150701011357 56 170 5.0 6.0 0.69 0.00 0.00 97 1009.2
20150701010858 56 159 6.0 6.0 0.69 0.00 0.00 97 1009.1
20150701010357 56 0 0.0 0.0 0.69 0.00 0.00 97 1009.0
20150701005857 56 0 0.0 0.0 0.69 0.00 0.00 97 1008.9
20150701005358 56 0 0.0 0.0 0.69 0.00 0.00 97 1008.9
20150701004859 56 0 0.0 0.0 0.69 0.00 0.00 97 1008.9
20150701004357 55 167 1.0 4.0 0.69 0.00 0.00 97 1008.8
20150701003858 55 152 6.0 6.0 0.69 0.00 0.00 97 1009.2
20150701003357 55 136 6.0 6.0 0.69 0.00 0.00 97 1009.1
20150701002857 56 142 7.0 8.0 0.69 0.00 0.00 97 1008.9
20150701002357 56 132 7.0 8.0 0.69 0.00 0.00 97 1008.9
20150701001857 57 132 5.0 6.0 0.69 0.00 0.00 97 1009.0
20150701001358 57 135 5.0 7.0 0.69 0.00 0.00 97 1009.0
20150701000857 57 0 0.0 0.0 0.69 0.00 0.00 97 1009.1
20150701000357 57 0 0.0 0.0 0.69 0.00 0.00 97 1009.0
20150630235858 57 0 0.0 0.0 0.69 0.00 0.00 97 1009.2
20150630235358 57 0 0.0 0.0 0.69 0.00 0.00 97 1009.2
20150630234859 57 0 0.0 0.0 0.69 0.00 0.00 97 1009.5
20150630234358 57 0 0.0 0.0 0.69 0.00 0.00 97 1009.0
20150630233859 57 100 5.0 7.0 0.69 0.00 0.00 97 1008.9
20150630233359 57 96 6.0 7.0 0.69 0.00 0.00 97 1008.8
20150630232859 57 0 0.0 0.0 0.69 0.00 0.00 97 1008.8
20150630232359 57 0 0.0 0.0 0.69 0.00 0.00 96 1008.8
20150630231859 57 0 0.0 0.0 0.69 0.00 0.00 96 1008.7
20150630231359 57 110 4.0 5.0 0.69 0.00 0.00 96 1008.9
20150630230900 57 0 0.0 0.0 0.69 0.00 0.00 96 1008.9
20150630230359 57 0 0.0 0.0 0.69 0.00 0.00 96 1009.0
20150630225900 57 0 0.0 0.0 0.69 0.00 0.00 96 1008.9
20150630225359 57 0 0.0 0.0 0.69 0.00 0.00 96 1008.6
20150630224859 57 0 0.0 0.0 0.69 0.00 0.00 96 1008.8
20150630224400 57 0 0.0 0.0 0.69 0.00 0.00 96 1009.0
20150630223859 58 28 4.0 5.0 0.69 0.00 0.00 96 1008.9
20150630223359 58 20 5.0 7.0 0.69 0.00 0.00 96 1009.0
20150630222859 58 0 0.0 0.0 0.69 0.00 0.00 96 1008.9
20150630222502 58 0 0.0 0.0 0.69 0.00 0.00 96 1009.2
20150630221859 58 0 0.0 0.0 0.69 0.00 0.00 96 1009.1
20150630221359 58 0 0.0 0.0 0.69 0.00 0.00 96 1009.2
20150630220859 57 0 0.0 0.0 0.69 0.00 0.00 96 1009.2
20150630220402 57 0 0.0 0.0 0.69 0.00 0.00 95 1009.4
20150630215859 57 0 0.0 0.0 0.69 0.00 0.00 95 1009.4
20150630215358 58 0 0.0 0.0 0.69 0.00 0.00 95 1008.9
20150630214900 57 69 6.0 7.0 0.69 0.00 0.00 94 1009.1
20150630214400 57 359 7.0 41.0 0.69 0.00 0.00 94 1009.0
20150630213900 57 13 5.0 6.0 0.69 0.00 0.00 93 1009.2
20150630213406 57 0 0.0 0.0 0.69 0.00 0.00 92 1009.2
20150630212859 57 0 0.0 0.0 0.69 0.00 0.00 92 1009.4
20150630212400 57 0 0.0 0.0 0.69 0.00 0.00 91 1009.4
20150630211900 57 0 0.0 0.0 0.69 0.00 0.00 90 1009.5
20150630211359 57 0 0.0 0.0 0.69 0.00 0.00 90 1009.6
20150630210900 57 0 0.0 0.0 0.69 0.00 0.00 89 1009.7
20150630210359 57 0 0.0 0.0 0.69 0.00 0.00 85 1009.7
20150630205859 57 0 0.0 0.0 0.69 0.00 0.00 85 1009.6
20150630205400 57 0 0.0 0.0 0.69 0.00 0.00 81 1009.6
20150630204901 57 0 0.0 0.0 0.69 0.00 0.00 78 1009.6
20150630204401 57 0 0.0 0.0 0.69 0.00 0.00 81 1009.5
20150630203900 57 0 0.0 0.0 0.69 0.00 0.00 85 1009.5
20150630203359 57 143 5.0 8.0 0.69 0.00 0.00 84 1009.6
20150630202859 57 152 6.0 14.0 0.69 0.00 0.00 86 1009.6
20150630202400 57 146 5.0 10.0 0.69 0.00 0.00 91 1009.6
20150630201859 57 136 4.0 6.0 0.69 0.00 0.00 91 1009.8
20150630201359 57 158 5.0 7.0 0.69 0.00 0.00 89 1009.8
20150630200900 57 0 0.0 0.0 0.69 0.00 0.00 88 1009.8
20150630200359 57 167 6.0 7.0 0.69 0.00 0.00 87 1009.9
20150630195859 57 138 6.0 8.0 0.69 0.00 0.00 88 1009.9
20150630195402 57 136 5.0 10.0 0.69 0.00 0.00 88 1009.8
20150630193859 57 0 0.0 0.0 0.69 0.00 0.00 81 1010.0
20150630193359 57 0 0.0 0.0 0.69 0.00 0.00 94 1010.1
20150630192901 57 0 0.0 0.0 0.69 0.00 0.00 93 1010.2
20150630192359 57 0 0.0 0.0 0.69 0.00 0.00 94 1010.2
20150630191859 57 0 0.0 0.0 0.69 0.00 0.00 94 1010.1
20150630191402 57 0 0.0 0.0 0.69 0.00 0.00 88 1010.2
20150630190900 57 0 0.0 0.0 0.69 0.00 0.00 93 1010.3
20150630190400 57 0 0.0 0.0 0.69 0.00 0.00 93 1010.1
20150630185901 57 0 0.0 0.0 0.69 0.00 0.00 93 1010.2
20150630185359 57 0 0.0 0.0 0.69 0.00 0.00 94 1010.2
20150630184859 57 0 0.0 0.0 0.69 0.00 0.00 94 1010.2
20150630184401 57 173 4.0 5.0 0.69 0.00 0.00 93 1010.4
20150630183859 57 162 5.0 7.0 0.69 0.00 0.00 92 1010.3
20150630183400 57 191 2.0 5.0 0.69 0.00 0.00 91 1010.4
20150630182902 57 0 0.0 0.0 0.69 0.00 0.00 95 1010.4
20150630182359 57 0 0.0 0.0 0.69 0.00 0.00 95 1010.6
20150630181859 57 0 0.0 0.0 0.69 0.00 0.00 96 1010.6
20150630181401 57 162 6.0 7.0 0.69 0.00 0.00 96 1010.6
20150630180859 57 174 6.0 8.0 0.69 0.00 0.00 96 1010.7
20150630180400 57 179 5.0 7.0 0.69 0.00 0.00 96 1010.6
20150630175859 57 174 8.0 9.0 0.69 0.00 0.00 96 1010.5
20150630175403 57 167 7.0 9.0 0.69 0.00 0.00 96 1010.6
20150630174859 57 0 0.0 0.0 0.69 0.00 0.00 96 1010.5
20150630174400 57 0 0.0 0.0 0.69 0.00 0.00 96 1010.7
20150630173900 56 131 2.0 5.0 0.69 0.00 0.00 96 1010.9
20150630173359 56 145 5.0 8.0 0.69 0.00 0.00 96 1010.7
20150630172900 55 135 8.0 9.0 0.69 0.00 0.00 96 1010.7
20150630172401 55 134 6.0 7.0 0.69 0.00 0.00 95 1010.9
20150630171900 53 0 0.0 0.0 0.69 0.00 0.00 95 1010.8
20150630171359 54 184 5.0 6.0 0.69 0.00 0.00 95 1011.1
20150630170900 55 160 5.0 6.0 0.69 0.00 0.00 95 1010.9
20150630170400 55 162 2.0 6.0 0.69 0.00 0.00 95 1010.9
20150630165901 55 162 7.0 8.0 0.69 0.00 0.00 95 1010.9
20150630165359 55 170 6.0 7.0 0.69 0.00 0.00 95 1010.8
20150630164900 55 177 6.0 8.0 0.69 0.00 0.00 95 1010.9
20150630164401 55 169 8.0 10.0 0.69 0.00 0.00 95 1011.0
20150630163859 56 188 7.0 8.0 0.69 0.00 0.00 94 1010.8
20150630163400 55 162 8.0 9.0 0.69 0.00 0.00 94 1010.9
20150630162900 55 162 8.0 9.0 0.69 0.00 0.00 94 1010.9
20150630162402 56 150 9.0 11.0 0.69 0.00 0.00 93 1010.9
20150630161859 56 142 9.0 11.0 0.69 0.00 0.00 93 1011.0
20150630161359 56 138 8.0 11.0 0.69 0.00 0.00 92 1011.0
20150630160900 56 159 10.0 11.0 0.69 0.00 0.00 92 1011.0
20150630160400 56 155 10.0 13.0 0.69 0.00 0.00 92 1011.0
20150630155859 56 163 10.0 13.0 0.69 0.00 0.00 92 1011.1
20150630155359 56 150 10.0 13.0 0.69 0.00 0.00 92 1011.1
20150630154859 56 139 11.0 14.0 0.69 0.00 0.00 91 1011.0
20150630154400 56 136 11.0 14.0 0.69 0.00 0.00 91 1011.1
20150630153900 56 167 10.0 13.0 0.69 0.00 0.00 92 1011.1
20150630153400 56 148 12.0 16.0 0.69 0.00 0.00 91 1011.0
20150630152859 56 148 13.0 15.0 0.69 0.00 0.00 91 1011.1
20150630152400 56 124 13.0 16.0 0.69 0.00 0.00 91 1011.1
20150630151900 56 135 14.0 18.0 0.69 0.00 0.00 91 1011.2
20150630151400 56 148 10.0 11.0 0.69 0.00 0.00 92 1011.1